West Plains, MO

2:20 PM CST on January 19, 2018 (GMT -0600)
West Plains Municipal

Weather History for KUNO - July, 2014

Change the Weather History Date:

Monday, July 21, 2014

  Actual Average Record
Temperature  
Mean Temperature 71 °F 78 °F  
Max Temperature 83 °F 90 °F 100 °F (1964)
Min Temperature 59 °F 67 °F 54 °F (1970)
Degree Days  
Heating Degree Days 0 0  
Month to date heating degree days 2 0  
Since 1 June heating degree days 4 5  
Since 1 July heating degree days 2 0  
Cooling Degree Days 6 13  
Month to date cooling degree days 144 269  
Year to date cooling degree days 559 657  
Since 1 June cooling degree days 409 535  
Growing Degree Days 20 (Base 50)    
Moisture  
Dew Point 63 °F    
Average Humidity 74    
Maximum Humidity 93    
Minimum Humidity 54    
Precipitation  
Precipitation 0.00 in 0.12 in 2.03 in (2013)
Month to date precipitation 1.54 2.52  
Year to date precipitation 18.75 25.81  
Sea Level Pressure  
Sea Level Pressure 30.07 in    
Wind  
Wind Speed 3 mph (SSE)    
Max Wind Speed 10 mph    
Max Gust Speed 15 mph    
Visibility 9 miles    
Events      
T = Trace of Precipitation, MM = Missing Value Source: NWS Daily Summary

Daily Weather History Graph

Daily Weather History Graph

Search for Another Location

Airport or City:

Trip Planner

Search our weather history database for the weather conditions in past years. The results will help you decide how hot, cold, wet, or windy it might be!

Date:

Astronomy

Jul. 21, 2014 Rise Set
Actual Time 6:04 AM CDT 8:23 PM CDT
Civil Twilight 5:34 AM CDT 8:52 PM CDT
Nautical Twilight 4:58 AM CDT 9:28 PM CDT
Astronomical Twilight 4:18 AM CDT 10:08 PM CDT
Moon 1:53 AM CDT (7/21) 4:07 PM CDT (7/21)
Length of Visible Light 15h 17m
Length of Day
14h 18m
Waning Crescent, 24% of the Moon is Illuminated
Jul 21
Waning Crescent
Jul 26
New
Aug 3
First Quarter
Aug 10
Full
Aug 17
Last Quarter

Hourly Weather History & Observations

Time (CDT) Temp. Heat Index Dew Point Humidity Pressure Visibility Wind Dir Wind Speed Gust Speed Precip Events Conditions
12:53 AM 64.9 °F - 61.0 °F 87% 30.03 in 9.0 mi Calm Calm - N/A   Clear
1:53 AM 62.1 °F - 59.0 °F 90% 30.03 in 7.0 mi Calm Calm - N/A   Clear
2:53 AM 62.1 °F - 59.0 °F 90% 30.04 in 6.0 mi Calm Calm - N/A   Clear
3:53 AM 60.1 °F - 57.9 °F 93% 30.05 in 7.0 mi Calm Calm - N/A   Clear
4:53 AM 59.0 °F - 57.0 °F 93% 30.06 in 5.0 mi Calm Calm - N/A   Clear
5:53 AM 60.1 °F - 57.9 °F 93% 30.08 in 6.0 mi Calm Calm - N/A   Clear
6:53 AM 60.1 °F - 57.0 °F 90% 30.09 in 5.0 mi Calm Calm - N/A   Clear
7:53 AM 66.0 °F - 63.0 °F 90% 30.10 in 5.0 mi Calm Calm - N/A   Clear
8:53 AM 72.0 °F - 64.9 °F 78% 30.11 in 10.0 mi Calm Calm - N/A   Clear
9:53 AM 75.9 °F - 63.0 °F 64% 30.12 in 10.0 mi South 6.9 mph - N/A   Clear
10:53 AM 78.1 °F - 64.9 °F 64% 30.12 in 10.0 mi SSW 4.6 mph - N/A   Partly Cloudy
11:53 AM 79.0 °F - 63.0 °F 58% 30.12 in 10.0 mi SE 6.9 mph - N/A   Mostly Cloudy
12:53 PM 80.1 °F 81.5 °F 63.0 °F 56% 30.11 in 10.0 mi South 5.8 mph - N/A   Partly Cloudy
1:53 PM 81.0 °F 82.5 °F 64.0 °F 56% 30.10 in 10.0 mi ESE 8.1 mph - N/A   Partly Cloudy
2:53 PM 82.0 °F 83.8 °F 64.9 °F 56% 30.09 in 10.0 mi ESE 3.5 mph - N/A   Scattered Clouds
3:53 PM 82.0 °F 83.4 °F 64.0 °F 54% 30.06 in 10.0 mi South 5.8 mph - N/A   Partly Cloudy
4:53 PM 82.0 °F 83.8 °F 64.9 °F 56% 30.06 in 10.0 mi SW 5.8 mph - N/A   Clear
5:53 PM 82.0 °F 83.4 °F 64.0 °F 54% 30.05 in 10.0 mi SW 4.6 mph - N/A   Partly Cloudy
6:53 PM 81.0 °F 82.5 °F 64.0 °F 56% 30.05 in 10.0 mi Calm Calm - N/A   Clear
7:53 PM 79.0 °F - 66.0 °F 64% 30.04 in 10.0 mi SE 3.5 mph - N/A   Clear
8:53 PM 73.9 °F - 66.0 °F 76% 30.05 in 10.0 mi ESE 4.6 mph - N/A   Clear
9:53 PM 72.0 °F - 66.0 °F 81% 30.06 in 10.0 mi SSE 3.5 mph - N/A   Clear
10:53 PM 71.1 °F - 66.0 °F 84% 30.07 in 8.0 mi Calm Calm - N/A   Clear
11:53 PM 69.1 °F - 64.0 °F 84% 30.08 in 8.0 mi Calm Calm - N/A   Clear